CAPE
1091 759 824 879 1137 1666 1402 1738 1670 1688 1948 1894 1964 2010 1725 1708 1980 2216 2470 2183 1692 2288 1760 1876 2315 2026 971 378 1469 433 301 334 982 114 1624 2490 2054 1420 1554 1724 1328 193 0
1167 991 829 861 1015 961 1392 1559 1709 1880 1864 2026 2011 1924 1940 1812 1775 2208 1995 1967 1474 1921 1864 1913 1474 1086 2156 2984 1251 2521 903 1981 808 2660 1997 1515 1949 1510 1405 1731 1049 0 0
1295 1081 1002 887 838 893 993 1231 1395 1521 1683 1454 1720 2198 2005 1442 1383 1787 1846 1741 1535 1853 1089 1937 1679 1948 2612 1873 2044 1866 1445 1071 1711 1272 1182 1267 1680 1157 2085 1458 1519 70 0
1309 1263 1309 1258 1034 907 1212 1435 1153 1533 1606 1591 1551 1747 1790 1501 1145 1182 1205 1375 1637 1560 1935 1797 1688 2170 2370 2152 1919 2862 1992 2364 1812 2230 2090 1193 1426 1843 853 2313 1464 1532 0
1553 1515 1648 1975 1856 1667 1848 1408 1427 1530 1456 1578 1486 1510 1491 1465 992 1513 1291 1321 1680 1763 1486 1621 1603 1575 165 600 2861 2559 2544 2668 1702 1884 1295 709 733 1099 1094 1427 1757 1344 435
1696 900 1920 1985 2068 2126 2022 2025 1762 1630 1909 1892 1569 1545 1501 1062 27 16 398 921 1217 1401 1725 1663 1629 546 295 49 20 57 397 2147 2382 2785 2297 646 569 2841 849 704 2459 1292 977
1665 1429 1331 2153 2091 2151 1817 1522 1620 1759 2191 2115 1984 1770 1897 1655 0 0 0 473 933 1090 1263 1431 1382 922 679 1214 65 0 0 1 53 1371 1601 1856 1719 1803 2489 1943 1254 1900 2165
1432 1411 1520 1471 1156 1423 1974 2148 1999 1769 1620 1661 1715 1215 784 602 0 0 0 134 794 888 1006 1165 1534 1292 496 538 1208 1112 958 91 35 80 841 693 189 213 965 1542 1092 1505 960
1332 1565 1470 1672 1740 1639 1596 1539 1505 1642 1785 1379 1225 915 646 112 0 0 0 134 301 367 292 15 0 22 0 0 328 723 651 54 0 0 0 0 0 0 1 72 1136 804 1316
1013 887 671 851 390 253 315 457 463 497 856 1078 935 636 84 2 1 1 0 3 24 57 0 0 0 0 0 0 102 543 370 273 1 0 0 0 0 0 0 0 0 323 317
809 651 466 546 482 497 396 266 19 6 4 2 4 4 1 2 2 1 0 4 4 1 0 0 0 0 0 0 0 0 0 0 0 0 0 0 0 0 0 0 0 0 0
243 122 72 35 34 39 19 10 7 7 2 2 1 2 2 3 0 1 0 0 0 5 1 2 1 0 0 0 0 0 0 0 0 6 0 0 0 0 0 0 0 0 0
9 7 8 7 8 7 15 13 9 7 1 3 1 4 6 5 4 0 0 0 0 1 1 0 0 0 0 0 0 0 0 0 0 0 0 0 0 0 0 0 0 0 0
6 6 3 5 4 3 0 3 6 4 4 6 1 1 0 0 0 0 1 6 1 0 0 0 0 0 0 0 0 0 0 0 0 0 0 0 0 0 0 0 0 0 0
2 4 4 4 3 1 1 3 4 3 3 4 3 1 0 0 1 0 0 0 1 0 0 0 0 0 0 0 0 0 0 0 3 12 6 0 0 0 2 0 0 0 0
0 0 1 0 0 1 0 0 0 0 0 0 0 0 0 0 0 0 0 0 0 0 1 0 0 1 0 0 0 0 0 0 0 0 0 0 3 0 0 0 0 0 0
0 0 0 0 0 0 0 0 0 0 0 0 0 0 0 0 0 0 0 0 0 0 0 0 0 0 0 0 0 0 0 0 0 0 0 0 0 0 0 0 0 0 0
0 0 0 0 0 0 0 0 0 0 0 0 0 0 0 0 0 0 0 0 0 0 0 0 0 0 0 0 0 0 0 0 0 0 0 0 0 0 0 0 0 0 0
0 0 0 0 0 0 0 0 0 0 0 0 0 0 0 0 0 0 0 0 0 0 0 0 0 0 0 0 0 0 0 0 0 0 0 0 0 0 0 0 0 0 0
0 0 0 0 0 0 0 0 0 0 0 0 0 0 0 0 0 0 0 0 0 0 0 0 0 0 0 1 6 1 0 0 0 0 0 0 0 0 0 0 0 0 0
0 0 0 0 0 0 0 0 0 0 0 0 0 0 0 0 0 0 0 0 0 0 0 0 0 0 9 19 22 12 2 6 6 0 0 0 0 0 0 0 0 0 0
2 1 0 1 0 0 0 0 0 0 0 0 0 0 0 0 0 0 0 0 0 0 0 0 0 9 14 29 30 15 8 7 8 8 3 0 1 0 0 0 0 0 0
40 41 36 16 2 0 0 0 4 5 7 4 3 2 3 3 2 2 2 3 2 1 2 3 10 20 32 31 12 9 5 4 7 5 4 3 1 0 0 0 0 0 1
29 44 39 30 37 26 16 17 20 0 1 13 22 25 25 30 23 23 13 12 11 15 15 14 18 17 29 23 27 24 31 7 0 0 1 1 1 0 0 0 1 3 2
36 33 29 45 54 53 37 23 25 36 40 25 42 40 21 51 34 34 31 22 24 24 34 31 27 27 41 50 41 38 0 0 0 0 0 0 0 0 0 0 3 6 7
35 45 37 27 31 34 59 63 62 51 61 61 31 24 32 24 17 17 21 28 29 31 26 36 42 42 39 44 48 3 0 0 0 0 0 0 0 0 2 2 1 2 7
CIN
-0 -0 -0 -0 -0 -0 -0 -0 -0 -0 -0 -0 -0 -0 -0 -0 -0 -0 -1 -0 -0 -0 -0 -0 -0 -0 -0 -2 -27 -6 -1 -9 -10 -1 -42 -7 -8 -6 -0 -4 -73 -123 -0
-0 -0 -0 -0 -0 -0 -0 -0 -0 -0 -0 -0 -0 -0 -0 -0 -0 -0 -0 -0 -0 -3 -1 -0 -0 -0 -0 -0 -2 -0 -1 -2 -0 -0 -3 -37 -1 -0 -0 -0 -13 -0 -0
-0 -0 -0 -0 -0 -0 -0 -0 -0 -0 -0 -0 -0 -0 -0 -0 -0 -0 -0 -0 -0 -0 -0 -6 -7 -1 -1 -1 -0 -0 -20 -43 -0 -0 -0 -0 -29 -0 -1 -0 -0 -7 -0
-0 -0 -0 -0 -0 -0 -0 -0 -0 -0 -0 -0 -0 -0 -0 -0 -0 -0 -0 -0 -0 -0 -0 -0 -0 -0 -1 -0 -2 -1 -1 -1 -2 -2 -6 -1 -23 -45 -0 -3 -0 -0 -0
-0 -0 -0 -0 -0 -0 -0 -0 -0 -0 -0 -0 -0 -0 -0 -0 -0 -0 -0 -0 -0 -0 -0 -0 -0 -4 -137 -86 -1 -0 -0 -0 -2 -3 -2 -1 -84 -29 -46 -21 -2 -0 -8
-30 -93 -0 -0 -0 -0 -13 -23 -5 -0 -0 -0 -0 -0 -0 -0 -132 -179 -47 -0 -0 -0 -0 -0 -0 -40 -90 -179 -197 -161 -80 -0 -0 -0 -2 -27 -49 -0 -6 -1 -6 -0 -0
-5 -1 -15 -13 -0 -0 -12 -17 -9 -9 -0 -0 -0 -0 -0 -0 -0 -0 -0 -11 -0 -0 -0 -0 -0 -9 -36 -1 -38 -0 -13 -55 -164 -15 -0 -0 -0 -0 -0 -0 -0 -0 -0
-0 -3 -8 -4 -21 -10 -0 -0 -0 -0 -0 -1 -0 -6 -27 -31 -0 -0 -0 -55 -0 -0 -0 -0 -2 -0 -0 -5 -0 -0 -0 -7 -39 -10 -8 -9 -14 -108 -7 -0 -0 -0 -2
-0 -0 -0 -0 -0 -0 -0 -0 -0 -0 -0 -0 -0 -0 -2 -21 -0 -0 -0 -8 -0 -1 -1 -6 -0 -20 -0 -0 -41 -0 -1 -2 -0 -0 -0 -0 -0 -0 -3 -75 -3 -0 -0
-0 -0 -2 -0 -2 -26 -5 -0 -3 -1 -0 -0 -0 -0 -9 -0 -0 -0 -0 -0 -29 -3 -0 -0 -0 -0 -0 -0 -12 -0 -0 -0 -25 -0 -0 -0 -0 -0 -0 -0 -0 -3 -16
-0 -0 -0 -1 -1 -4 -7 -67 -150 -0 -0 -0 -0 -0 -0 -0 -0 -0 -0 -0 -0 -0 -0 -0 -0 -0 -0 -0 -0 -0 -0 -0 -0 -0 -0 -0 -0 -0 -0 -0 -0 -0 -0
-99 -120 -129 -42 -111 -136 -173 -5 -0 -0 -0 -0 -0 -0 -0 -0 -0 -0 -0 -0 -0 -0 -0 -0 -0 -0 -0 -0 -0 -0 -0 -0 -0 -43 -0 -0 -0 -0 -0 -0 -0 -0 -0
-0 -0 -0 -0 -0 -0 -175 -0 -0 -0 -0 -0 -0 -0 -0 -0 -0 -0 -0 -0 -0 -0 -0 -0 -0 -0 -0 -0 -0 -0 -0 -0 -0 -0 -0 -0 -0 -0 -0 -0 -0 -0 -0
-0 -0 -0 -0 -0 -0 -0 -0 -0 -0 -0 -0 -0 -0 -0 -0 -0 -0 -0 -0 -0 -0 -0 -0 -0 -0 -0 -0 -0 -0 -0 -0 -0 -0 -0 -0 -0 -0 -0 -0 -0 -0 -0
-0 -0 -0 -0 -0 -0 -0 -0 -0 -0 -0 -0 -0 -0 -0 -0 -0 -0 -0 -0 -0 -0 -0 -0 -0 -0 -0 -0 -0 -0 -0 -0 -16 -2 -0 -0 -0 -0 -5 -0 -0 -0 -0
-0 -0 -0 -0 -0 -0 -0 -0 -0 -0 -0 -0 -0 -0 -0 -0 -0 -0 -0 -0 -0 -0 -0 -0 -0 -0 -0 -0 -0 -0 -0 -0 -0 -0 -0 -0 -1 -0 -0 -0 -0 -0 -0
-0 -0 -0 -0 -0 -0 -0 -0 -0 -0 -0 -0 -0 -0 -0 -0 -0 -0 -0 -0 -0 -0 -0 -0 -0 -0 -0 -0 -0 -0 -0 -0 -0 -0 -0 -0 -0 -0 -0 -0 -0 -0 -0
-0 -0 -0 -0 -0 -0 -0 -0 -0 -0 -0 -0 -0 -0 -0 -0 -0 -0 -0 -0 -0 -0 -0 -0 -0 -0 -0 -0 -0 -0 -0 -0 -0 -0 -0 -0 -0 -0 -0 -0 -0 -0 -0
-0 -0 -0 -0 -0 -0 -0 -0 -0 -0 -0 -0 -0 -0 -0 -0 -0 -0 -0 -0 -0 -0 -0 -0 -0 -0 -0 -0 -0 -0 -0 -0 -0 -0 -0 -0 -0 -0 -0 -0 -0 -0 -0
-0 -0 -0 -0 -0 -0 -0 -0 -0 -0 -0 -0 -0 -0 -0 -0 -0 -0 -0 -0 -0 -0 -0 -0 -0 -0 -0 -0 -0 -0 -0 -0 -0 -0 -0 -0 -0 -0 -0 -0 -0 -0 -0
-0 -0 -0 -0 -0 -0 -0 -0 -0 -0 -0 -0 -0 -0 -0 -0 -0 -0 -0 -0 -0 -0 -0 -0 -0 -0 -0 -0 -0 -0 -0 -0 -0 -0 -0 -0 -0 -0 -0 -0 -0 -0 -0
-0 -0 -0 -0 -0 -0 -0 -0 -0 -0 -0 -0 -0 -0 -0 -0 -0 -0 -0 -0 -0 -0 -0 -0 -0 -0 -0 -0 -0 -0 -0 -0 -0 -0 -0 -0 -0 -0 -0 -0 -0 -0 -0
-0 -0 -0 -0 -0 -0 -0 -0 -0 -0 -0 -0 -0 -0 -0 -0 -0 -0 -0 -0 -0 -0 -0 -0 -0 -0 -0 -0 -0 -0 -0 -0 -0 -0 -0 -0 -0 -0 -0 -0 -0 -0 -0
-0 -0 -0 -0 -0 -0 -0 -0 -0 -0 -0 -0 -0 -0 -0 -0 -0 -0 -0 -0 -1 -0 -0 -0 -0 -0 -0 -0 -0 -0 -0 -0 -0 -0 -0 -0 -0 -0 -0 -0 -0 -0 -0
-0 -0 -2 -0 -0 -0 -0 -0 -0 -0 -0 -5 -8 -18 -29 -0 -0 -0 -0 -0 -0 -0 -0 -0 -0 -0 -0 -1 -0 -0 -0 -0 -0 -0 -0 -0 -0 -0 -0 -0 -0 -0 -0
-0 -0 -3 -10 -10 -12 -16 -4 -12 -15 -3 -5 -20 -14 -3 -0 -0 -0 -0 -0 -0 -0 -0 -0 -0 -0 -0 -0 -1 -3 -0 -0 -0 -0 -0 -0 -0 -0 -0 -0 -0 -0 -0
Wind_Speed
12 12 12 13 14 12 10 8 8 8 6 6 7 7 8 7 7 7 9 9 7 8 7 7 8 6 8 9 7 5 5 6 5 6 7 8 4 1 5 5 6 8 9
12 11 12 11 11 11 10 10 10 9 8 8 7 7 8 8 8 7 9 10 6 7 9 8 7 9 4 7 8 7 6 7 7 7 8 2 4 1 1 1 4 9 8
12 12 12 12 11 10 9 9 9 8 9 10 8 8 8 8 7 8 7 9 10 10 9 4 7 7 4 8 7 7 4 3 3 5 8 5 4 5 6 3 4 7 8
12 12 12 11 10 10 10 9 9 8 9 9 9 8 9 8 8 8 8 9 9 10 9 7 9 11 7 7 8 6 7 5 4 4 5 9 5 2 4 5 4 4 5
9 12 10 10 9 9 8 7 8 8 7 9 9 8 8 9 9 10 9 9 8 11 10 8 11 9 3 3 5 6 6 5 6 6 7 7 4 7 3 3 5 5 5
5 5 7 8 9 8 6 3 5 8 9 9 8 8 10 10 9 5 3 7 8 8 8 9 11 6 6 5 5 3 4 7 7 5 6 3 4 7 4 3 3 6 4
5 9 8 5 11 10 10 8 10 8 11 11 9 10 8 9 6 4 2 7 9 9 8 8 8 5 5 8 5 5 5 5 3 5 7 7 7 5 6 4 2 4 4
8 8 10 11 10 5 7 8 9 9 10 8 9 7 4 2 8 3 1 7 9 9 9 8 6 8 3 6 6 8 7 5 6 5 4 4 6 6 6 3 3 4 3
3 7 8 6 5 7 6 7 7 6 6 9 10 10 6 1 6 6 2 7 7 6 3 7 8 6 5 5 7 5 5 6 5 5 8 6 5 6 6 5 0 4 4
5 4 4 4 2 3 3 4 6 7 6 7 8 8 4 7 5 5 2 2 5 2 2 4 12 10 10 9 6 3 3 1 3 3 3 1 1 7 11 8 6 4 6
7 5 5 5 3 3 6 7 6 7 10 10 9 9 9 9 5 3 4 1 2 1 1 2 4 10 10 10 10 7 5 7 4 1 1 2 4 6 7 8 9 8 6
10 8 7 7 4 4 6 7 6 7 8 8 8 6 5 7 11 11 13 9 7 1 3 3 2 7 9 11 7 8 8 6 1 1 3 3 4 4 5 4 4 7 5
8 8 7 6 6 8 6 6 5 7 8 6 5 5 5 6 6 10 13 11 13 8 5 6 6 5 6 7 10 9 6 4 2 3 3 3 2 4 3 2 3 3 5
9 9 8 7 8 8 5 4 5 5 5 4 6 6 5 4 4 5 5 5 8 7 8 3 3 2 3 6 4 2 1 2 1 1 1 1 0 1 2 2 3 2 4
9 8 8 6 7 8 8 6 5 5 4 3 5 6 4 6 4 4 4 4 3 4 3 4 4 3 4 4 4 4 2 2 3 3 3 4 4 5 3 3 3 4 4
8 6 6 6 5 5 7 8 13 10 9 11 10 7 7 10 6 2 3 4 3 4 3 1 3 2 3 2 3 3 3 3 5 5 7 9 6 5 6 2 2 3 4
8 8 7 6 4 3 4 6 7 5 8 9 10 8 9 9 4 2 1 3 3 4 2 1 1 4 2 3 4 1 2 2 3 3 2 2 0 2 1 1 3 4 4
6 2 6 6 6 6 7 6 5 6 5 5 3 2 6 5 4 5 6 5 5 6 5 4 3 5 5 5 3 3 4 2 3 2 3 2 2 3 2 3 5 3 4
5 5 6 4 3 3 3 1 4 5 6 7 6 4 6 7 7 7 6 8 4 4 2 3 1 3 5 4 3 4 3 2 2 2 4 2 3 5 3 4 2 4 4
4 4 3 3 4 2 2 2 3 3 4 3 3 5 7 6 8 7 3 3 4 4 4 5 2 2 1 1 5 3 4 2 3 3 3 3 1 3 6 4 3 4 1
6 5 4 4 3 3 1 3 2 2 2 2 5 6 5 6 4 2 2 4 5 5 5 5 5 2 1 2 1 2 4 4 1 4 4 3 2 5 4 4 3 3 4
3 6 4 1 3 3 2 3 3 2 2 3 7 5 3 5 3 2 1 2 2 3 3 2 4 2 2 1 2 2 5 5 4 4 3 5 4 4 4 4 4 4 3
6 5 7 6 4 4 4 6 3 3 3 2 1 3 7 2 1 2 2 3 2 3 2 4 5 5 4 4 3 4 6 6 5 4 4 4 4 5 4 5 5 5 5
9 5 5 4 3 5 7 7 5 1 6 4 4 4 3 3 4 3 3 3 3 4 3 4 4 5 7 2 4 6 4 1 3 4 3 7 6 4 5 6 6 5 5
9 9 0 4 5 6 7 6 6 4 3 2 3 5 6 9 6 7 6 5 6 6 6 5 5 6 6 8 8 7 8 9 4 4 7 5 7 7 5 7 5 5 4
9 7 5 2 2 0 4 0 1 3 7 5 4 2 5 6 6 6 6 6 6 7 7 10 9 10 10 9 9 11 10 12 5 3 6 7 6 6 6 6 7 5 6
Wind_Direction
199 199 207 204 207 212 224 213 231 249 245 233 235 247 252 242 230 241 261 286 282 258 266 284 285 273 279 299 350 279 271 295 288 290 46 48 354 346 354 67 162 89 78
195 196 200 214 218 212 214 224 211 223 232 238 244 233 239 250 262 231 240 279 250 277 265 247 259 260 259 256 281 290 303 333 308 336 318 190 231 59 299 278 206 91 99
194 193 206 203 216 230 229 224 241 242 249 260 237 242 250 253 249 248 249 250 265 267 271 240 287 284 281 288 307 307 288 338 239 280 293 262 261 200 176 210 131 128 112
192 201 199 206 217 221 215 230 244 237 239 250 255 235 250 254 257 251 253 256 257 260 262 273 254 264 230 235 249 272 291 290 288 272 275 268 228 126 220 170 188 226 145
221 202 204 200 210 225 228 225 233 237 266 264 254 259 251 254 245 238 235 249 255 256 257 258 254 265 64 311 259 255 275 287 266 277 266 266 358 324 95 182 178 180 192
209 257 234 199 197 200 229 266 269 255 235 240 254 262 266 269 72 40 305 269 267 261 264 265 269 214 225 197 230 236 265 245 255 255 286 311 185 252 297 248 143 170 194
233 225 239 237 203 217 215 222 231 237 239 232 226 232 235 261 141 135 99 261 268 266 258 258 263 311 236 227 188 198 184 207 244 299 286 300 315 319 312 321 273 247 237
219 234 194 211 222 224 237 236 234 233 229 235 232 220 248 222 148 176 33 266 272 275 287 286 302 279 19 320 244 228 209 92 7 313 316 348 354 336 340 328 299 278 243
211 230 222 233 228 224 226 230 255 290 261 252 244 240 230 143 135 115 4 268 270 274 314 18 352 52 12 318 286 236 228 126 107 69 75 65 44 33 13 302 215 255 252
146 104 39 45 12 324 299 270 275 272 282 267 240 263 295 113 85 76 51 321 320 334 50 69 41 25 5 11 316 263 240 238 311 52 67 142 345 55 44 33 358 310 247
75 74 58 49 59 328 56 47 63 64 66 57 54 48 54 32 49 82 34 261 251 192 104 20 35 27 14 14 2 18 20 44 44 346 292 68 39 35 36 20 9 13 1
64 57 59 57 57 72 78 79 76 93 85 81 80 57 53 51 38 46 71 51 20 114 105 94 66 52 39 34 38 25 30 3 25 325 54 48 42 49 47 21 28 45 37
75 73 63 61 72 68 77 104 98 103 109 103 100 93 66 47 27 42 49 54 61 67 54 87 98 93 85 60 41 27 17 53 50 50 16 47 36 52 330 49 39 61 56
71 69 69 52 55 53 50 47 80 73 81 101 116 111 105 80 65 57 37 30 59 87 118 127 134 111 115 132 153 133 57 320 44 80 122 115 157 317 241 307 241 259 206
83 78 76 70 76 76 57 34 61 51 12 45 60 51 65 86 71 14 44 50 49 47 61 33 41 67 53 30 5 19 344 242 230 170 196 185 203 196 175 202 268 273 263
99 78 79 87 70 74 99 89 48 49 47 60 54 69 85 93 116 29 23 55 34 24 50 59 105 33 23 102 142 130 113 8 35 26 27 17 5 21 2 43 324 329 340
81 97 113 120 96 89 73 102 110 84 62 61 64 58 32 118 159 192 332 275 234 261 149 115 183 130 163 225 229 212 81 41 35 70 81 102 118 175 126 348 1 353 342
97 6 137 138 141 152 146 149 153 150 125 127 108 93 134 164 203 231 235 241 197 206 199 195 202 182 217 210 199 168 143 150 233 161 236 179 221 272 247 217 232 235 236
155 120 128 115 46 50 50 13 110 126 112 117 134 188 176 211 221 243 237 257 348 344 75 329 194 197 181 186 188 174 215 210 318 295 227 238 270 281 258 294 68 39 333
105 15 322 147 156 177 150 120 109 126 142 159 134 112 157 173 210 183 177 19 345 8 10 329 322 267 255 213 173 175 214 192 226 269 298 323 350 328 316 326 12 338 307
139 140 319 233 151 129 139 105 62 104 98 124 106 68 28 316 2 27 356 37 9 1 8 354 342 341 350 178 189 218 253 272 290 302 297 226 263 289 265 266 295 271 285
218 158 203 231 137 202 178 177 175 162 151 169 140 137 199 263 248 223 236 282 353 357 350 326 299 211 244 225 196 261 282 272 266 259 245 285 273 243 263 267 268 228 232
227 209 181 196 222 72 239 258 242 206 202 192 283 160 191 194 316 285 334 294 307 296 314 316 304 281 213 169 235 290 304 318 342 343 303 272 256 258 258 262 246 247 239
284 210 219 263 230 211 228 202 209 240 313 294 274 254 243 264 287 307 250 270 290 292 303 304 275 298 323 296 267 249 251 195 358 318 264 289 284 196 260 275 260 254 283
254 266 139 297 210 204 215 243 271 310 257 175 254 52 357 323 333 323 314 312 318 309 290 274 271 279 250 237 254 280 118 97 332 353 295 267 289 294 278 276 274 279 246
256 246 161 132 68 351 308 325 191 318 329 358 35 283 242 279 329 327 317 313 295 297 312 293 299 285 267 253 240 122 146 148 162 196 290 280 259 256 259 250 267 278 271